TimeMST,TemperatureF,Dew PointF,Humidity,Sea Level PressureIn,VisibilityMPH,Wind Direction,Wind SpeedMPH,Gust SpeedMPH,PrecipitationIn,Events,Conditions,WindDirDegrees,DateUTC
12:14 AM,36.3,1.9,24,30.16,10.0,SW,4.6,-,N/A,,Clear,220,2013-12-26 07:14:00
12:34 AM,37.2,2.5,23,30.16,10.0,Calm,Calm,-,N/A,,Clear,0,2013-12-26 07:34:00
12:54 AM,32.4,4.8,31,30.16,10.0,Calm,Calm,-,N/A,,Clear,0,2013-12-26 07:54:00
1:14 AM,27.7,8.4,44,30.17,10.0,North,6.9,-,N/A,,Clear,360,2013-12-26 08:14:00
1:34 AM,21.6,10.9,64,30.17,10.0,NNW,5.8,-,N/A,,Clear,340,2013-12-26 08:34:00
1:54 AM,21.0,11.8,68,30.19,10.0,NNW,3.5,-,N/A,,Clear,340,2013-12-26 08:54:00
2:14 AM,21.2,12.4,69,30.20,10.0,Calm,Calm,-,N/A,,Clear,0,2013-12-26 09:14:00
2:34 AM,19.9,12.4,72,30.20,10.0,SW,4.6,-,N/A,,Clear,220,2013-12-26 09:34:00
2:54 AM,19.8,13.1,75,30.20,10.0,SE,3.5,-,N/A,,Clear,130,2013-12-26 09:54:00
3:14 AM,23.4,14.0,67,30.16,10.0,SSW,8.1,-,N/A,,Clear,210,2013-12-26 10:14:00
3:34 AM,25.0,13.1,61,30.16,10.0,SW,5.8,-,N/A,,Clear,220,2013-12-26 10:34:00
3:54 AM,37.8,4.5,25,30.17,10.0,West,5.8,-,N/A,,Clear,280,2013-12-26 10:54:00
4:14 AM,39.7,2.1,21,30.17,10.0,NW,10.4,-,N/A,,Clear,310,2013-12-26 11:14:00
4:34 AM,42.4,3.9,20,30.16,10.0,West,10.4,-,N/A,,Clear,280,2013-12-26 11:34:00
4:54 AM,35.8,4.8,27,30.16,10.0,Calm,Calm,-,N/A,,Clear,0,2013-12-26 11:54:00
5:14 AM,42.1,5.4,22,30.16,10.0,West,11.5,-,N/A,,Clear,260,2013-12-26 12:14:00
5:34 AM,43.3,3.6,19,30.16,10.0,WSW,10.4,16.1,N/A,,Clear,250,2013-12-26 12:34:00
5:54 AM,36.7,8.4,31,30.20,10.0,NW,9.2,-,N/A,,Clear,320,2013-12-26 12:54:00
6:14 AM,40.3,5.9,24,30.20,10.0,NNW,4.6,-,N/A,,Clear,340,2013-12-26 13:14:00
6:33 AM,36.5,7.9,30,30.21,10.0,WNW,5.8,-,N/A,,Clear,300,2013-12-26 13:33:00
6:54 AM,36.9,8.1,30,30.22,10.0,North,6.9,-,N/A,,Clear,10,2013-12-26 13:54:00
7:14 AM,32.9,11.7,41,30.22,10.0,Calm,Calm,-,N/A,,Scattered Clouds,0,2013-12-26 14:14:00
7:34 AM,35.8,10.4,35,30.23,10.0,Calm,Calm,-,N/A,,Scattered Clouds,0,2013-12-26 14:34:00
7:54 AM,36.7,11.1,35,30.23,10.0,North,3.5,-,N/A,,Clear,10,2013-12-26 14:54:00
8:14 AM,34.2,15.1,46,30.24,10.0,Calm,Calm,-,N/A,,Clear,0,2013-12-26 15:14:00
8:34 AM,37.2,14.5,40,30.26,10.0,North,5.8,-,N/A,,Clear,360,2013-12-26 15:34:00
8:54 AM,35.8,15.6,44,30.26,10.0,NNE,8.1,-,N/A,,Clear,20,2013-12-26 15:54:00
9:14 AM,39.2,12.9,34,30.27,10.0,Calm,Calm,-,N/A,,Clear,0,2013-12-26 16:14:00
9:34 AM,42.1,12.7,30,30.28,10.0,WSW,3.5,-,N/A,,Clear,240,2013-12-26 16:34:00
9:54 AM,45.3,12.6,27,30.29,10.0,SSW,4.6,-,N/A,,Clear,200,2013-12-26 16:54:00
10:14 AM,48.9,5.9,17,30.28,10.0,SE,4.6,-,N/A,,Clear,130,2013-12-26 17:14:00
10:34 AM,50.7,5.4,16,30.28,10.0,SSE,4.6,-,N/A,,Clear,150,2013-12-26 17:34:00
10:54 AM,52.0,5.0,15,30.28,10.0,East,3.5,-,N/A,,Clear,100,2013-12-26 17:54:00
11:14 AM,52.3,3.7,14,30.27,10.0,SE,4.6,-,N/A,,Clear,130,2013-12-26 18:14:00
11:34 AM,53.4,3.7,13,30.26,10.0,ESE,4.6,-,N/A,,Clear,120,2013-12-26 18:34:00
11:54 AM,54.0,4.8,14,30.24,10.0,ESE,9.2,-,N/A,,Clear,120,2013-12-26 18:54:00
12:14 PM,54.7,5.5,14,30.23,10.0,ESE,10.4,-,N/A,,Clear,120,2013-12-26 19:14:00
12:34 PM,54.5,5.2,14,30.22,10.0,SSE,11.5,-,N/A,,Clear,150,2013-12-26 19:34:00
12:41 PM,54.5,5.0,14,30.22,10.0,SSE,10.4,-,N/A,,Clear,150,2013-12-26 19:41:00
6:34 PM,38.8,12.2,34,30.26,10.0,SW,3.5,-,N/A,,Clear,220,2013-12-27 01:34:00
6:54 PM,36.3,13.6,39,30.26,10.0,SW,3.5,-,N/A,,Clear,220,2013-12-27 01:54:00
7:14 PM,34.2,14.0,44,30.26,10.0,SSW,6.9,-,N/A,,Clear,210,2013-12-27 02:14:00
7:34 PM,34.0,14.5,45,30.26,10.0,SSW,4.6,-,N/A,,Clear,210,2013-12-27 02:34:00
7:54 PM,33.6,14.5,46,30.26,10.0,SSW,3.5,-,N/A,,Clear,200,2013-12-27 02:54:00
8:14 PM,32.5,14.9,48,30.26,10.0,SSW,4.6,-,N/A,,Clear,210,2013-12-27 03:14:00
8:34 PM,30.6,15.4,54,30.26,10.0,Calm,Calm,-,N/A,,Clear,0,2013-12-27 03:34:00
8:54 PM,31.6,13.6,47,30.26,10.0,Calm,Calm,-,N/A,,Clear,0,2013-12-27 03:54:00
9:14 PM,28.2,15.6,59,30.26,10.0,Calm,Calm,-,N/A,,Clear,0,2013-12-27 04:14:00
9:34 PM,27.0,15.8,63,30.26,10.0,Calm,Calm,-,N/A,,Clear,0,2013-12-27 04:34:00
9:54 PM,27.1,16.0,63,30.26,10.0,Calm,Calm,-,N/A,,Clear,0,2013-12-27 04:54:00
10:14 PM,23.7,16.0,72,30.26,10.0,Calm,Calm,-,N/A,,Clear,0,2013-12-27 05:14:00
10:34 PM,24.4,17.2,74,30.26,10.0,Calm,Calm,-,N/A,,Clear,0,2013-12-27 05:34:00
10:54 PM,23.7,16.9,75,30.25,10.0,Calm,Calm,-,N/A,,Clear,0,2013-12-27 05:54:00
11:14 PM,23.7,16.7,75,30.25,10.0,Calm,Calm,-,N/A,,Clear,0,2013-12-27 06:14:00
11:34 PM,23.9,16.5,73,30.25,10.0,SSW,3.5,-,N/A,,Clear,200,2013-12-27 06:34:00
11:54 PM,23.4,16.7,76,30.24,10.0,South,3.5,-,N/A,,Clear,190,2013-12-27 06:54:00